Regional Weather Roundup
Issued by NWS Albany, NY

Home | Current Version | Previous Version | Text Only | Print | Product List | Glossary On
Versions: 1 2 3 4 5 6 7 8 9 10 11 12 13 14 15 16 17 18 19 20 21 22 23 24 25 26 27
000
ASUS41 KALY 101110
RWRALY

NEW YORK STATE HOURLY WEATHER ROUNDUP
NATIONAL WEATHER SERVICE ALBANY NY
600 AM EST SAT DEC 10 2016

NOTE: "FAIR" INDICATES FEW OR NO CLOUDS BELOW 12,000 FEET WITH NO
SIGNIFICANT WEATHER AND/OR NO OBSTRUCTIONS TO VISIBILITY.

NYZ032-033-038>043-046>054-057>066-NYZ062>081-082-084-101200-
EAST


CITY           SKY/WX    TMP DP  RH WIND       PRES   REMARKS
ALBANY         CLOUDY    20  12  71 W6        30.32R WCI  12
GLENS FALLS    CLEAR     16   6  65 MISG      30.31R
POUGHKEEPSIE   CLEAR     15  12  88 CALM      30.33R
NEWBURGH       CLEAR     21  18  86 W6        30.33R WCI  14
MONTGOMERY     MOCLDY    18  14  84 SW3       30.32R
WHITE PLAINS   PTCLDY    25  15  66 W10       30.31R WCI  15
ISLIP          PTCLDY    23  16  74 W7        30.33R WCI  15
NEW YORK CITY  CLEAR     31  16  54 NW13      30.35R WCI  21
CENTRAL PARK   CLEAR     29  15  56 MISG      30.36S
$$

NYZ005>009-017-018-044>046-055-056-101200-
CENTRAL


CITY           SKY/WX    TMP DP  RH WIND       PRES   REMARKS
FULTON         CLOUDY    17  13  84 CALM      30.33R
SYRACUSE       FLURRIES  19  14  81 CALM      30.33R
ROME           CLOUDY    14  12  92 CALM      30.35R
ELMIRA         NOT AVBL
BINGHAMTON     NOT AVBL
MONTICELLO     CLEAR     18  16  93 W7        30.27R WCI   8
$$

NYZ026>034-041>043-087-101200-
NORTH


CITY           SKY/WX    TMP DP  RH WIND       PRES   REMARKS
WATERTOWN      PTCLDY    11   9  92 SE3       30.34R
FORT DRUM      NOT AVBL
OGDENSBURG     FAIR      16  14  91 CALM      30.34R
MASSENA        CLOUDY    19  12  74 W7        30.34R WCI  10
SARANAC LAKE   FLURRIES  12   6  77 CALM      30.19R
PLATTSBURGH    PTCLDY    18   7  62 NW5       30.31R WCI  11
$$

NYZ001>004-010>016-019>021-085-101200-
WEST


CITY           SKY/WX    TMP DP  RH WIND       PRES   REMARKS
NIAGARA FALLS  CLOUDY    26  21  81 N5        30.32R WCI  20
BUFFALO        CLOUDY    25  19  78 W5        30.32R WCI  19
DUNKIRK        LGT SNOW  28  19  69 W9G21     30.33R WCI  19
JAMESTOWN      CLOUDY    21  18  86 SW8       30.26R WCI  12
WELLSVILLE     LGT SNOW  22  18  85 SW5       30.24R FOG     WCI  16
ROCHESTER      CLOUDY    20  18  92 SW3       30.33S
PENN YAN       CLOUDY    21  15  78 CALM      30.31S
$$

             KEY
       WCI = WIND CHILL INDEX
       VSB = VISIBILITY
       HX  = HEAT INDEX
$$




USA.gov is the U.S. government's official web portal to all federal, state and local government web resources and services.